Weather Roundup
Issued by NWS

Home | Current Version | Previous Version | Text Only | Print | Product List | Glossary On
Versions: 1 2 3 4 5 6 7 8 9 10 11 12 13 14 15 16 17 18 19 20 21 22 23 24 25 26 27 28 29 30 31 32 33 34 35 36 37 38 39 40 41 42 43 44 45 46 47 48 49 50
684
NZUS93 KARX 241459
HRRWXR

CURRENT HOURLY OBSERVATIONS ACROSS
MUCH OF THE UPPER MISSISSIPPI VALLEY
NATIONAL WEATHER SERVICE LA CROSSE WI
1000 AM CDT FRI MAR 24 2017


...SOUTHEAST MINNESOTA...


CITY           SKY/WX    TMP DP  RH WIND       PRES   REMARKS
ROCHESTER      LGT RAIN  38  38 100 N7        29.91R FOG     WCI  33
ROCHESTER/MAYO CLOUDY    38  39 100 N5        29.92R WCI  35
WINONA         CLOUDY    37  37 100 E3        29.92R FOG
AUSTIN         CLOUDY    39  37  93 N5        29.90R FOG
ALBERT LEA     MIX PCPN  37  37 100 N9        29.92R WCI  31
DODGE CENTER   LGT RAIN  37  36  93 N8        29.91R WCI  31
PRESTON        CLOUDY    38  37  94 NE5       29.90R FOG     WCI  34
OWATONNA       RAIN      37  36  93 N7        29.93R WCI  32
FARIBAULT      LGT RAIN  37  37 100 N8        29.95R WCI  31
$$

...ELSEWHERE IN MINNESOTA...


CITY           SKY/WX    TMP DP  RH WIND       PRES   REMARKS
MINNEAPOLIS    CLOUDY    39  35  86 N9        29.97R WCI  33
INTNL FALLS    CLOUDY    36  31  82 N8        30.05R WCI  30
DULUTH         FOG       34  33  96 N12       29.98R VSB 1   WCI  25
RED WING       CLOUDY    39  37  93 CALM      29.94R FOG
REDWOOD FALLS  CLOUDY    38  34  85 N9        30.00R WCI  31
MANKATO        LGT RAIN  38  37  97 N8        29.97R FOG     WCI  32
WORTHINGTON    LGT RAIN  35  35 100 N20       29.95R VSB 1/4 WCI  24
FAIRMONT       LGT RAIN  38  37  97 N13       29.93R FOG     WCI  30
$$

...SOUTHWEST WISCONSIN...


CITY           SKY/WX    TMP DP  RH WIND       PRES   REMARKS
LA CROSSE      CLOUDY    42  39  89 N6        29.91R FOG
PRAIRIE DU CHI CLOUDY    46  39  77 NW5       29.85R
BOSCOBEL       CLOUDY    49  41  74 N7        29.87R
LONE ROCK      NOT AVBL
PLATTEVILLE    CLOUDY    56  50  81 S8        29.85S
FORT MC COY    CLOUDY    41  39  93 N3        29.92R
MAUSTON-NEW LI CLOUDY    43  38  85 NE5       29.88R
VIROQUA        CLOUDY    44  41  88 CALM      29.87R
WIS DELLS      PTSUNNY   46  38  74 NE3       29.87S
$$

...ELSEWHERE IN WISCONSIN...


CITY           SKY/WX    TMP DP  RH WIND       PRES   REMARKS
MILWAUKEE      CLOUDY    52  42  69 CALM      29.89F
MADISON        PTSUNNY   51  44  77 S5        29.87R
GREEN BAY      CLOUDY    41  38  89 N6        29.92S FOG
EAU CLAIRE     LGT RAIN  38  38 100 NE6       29.92S FOG     WCI  33
BLACK RVR FLS  CLOUDY    40  40 100 N7        29.93R FOG
MEDFORD        RAIN      35  34  96 N9        29.89S WCI  27
WAUSAU         CLOUDY    36  35  96 CALM      29.91R FOG
WIS RAPIDS     CLOUDY    38  38 100 NE7       29.93R FOG     WCI  33
MARSHFIELD     CLOUDY    37  37 100 NE6       29.92R FOG     WCI  32
RICE LAKE      DRIZZLE   36  35  98 CALM      29.96R
$$

...NORTHEAST IOWA...


CITY           SKY/WX    TMP DP  RH WIND       PRES   REMARKS
WATERLOO       CLOUDY    49  42  77 NW13      29.86R
DUBUQUE        CLOUDY    59  49  69 SW13      29.85R
DECORAH        CLOUDY    45  41  87 N7        29.87R
MASON CITY     LGT RAIN  41  39  93 N9        29.90R FOG
CHARLES CITY   CLOUDY    45  45 100 N12       29.86S
OELWEIN        CLOUDY    52  48  87 NW13G20   29.85R
$$

...ELSEWHERE IN IOWA...


CITY           SKY/WX    TMP DP  RH WIND       PRES   REMARKS
DES MOINES     CLOUDY    65  49  56 SW8       29.82R
IOWA CITY      CLOUDY    67  50  54 SW16      29.86R
FORT DODGE     CLOUDY    43  37  81 N8G18     29.86R
MARSHALLTOWN   CLOUDY    56  47  71 N13       29.82R
CEDAR RAPIDS   CLOUDY    65  51  60 S17       29.82R
$$

...NORTHERN ILLINOIS...


CITY           SKY/WX    TMP DP  RH WIND       PRES   REMARKS
CHICAGO-OHARE  CLOUDY    66  49  54 SW17G24   29.91S
CHICAGO-MIDWAY PTSUNNY   64  49  57 SW18G24   29.94S
MOLINE         SUNNY     69  48  47 SW23G31   29.86S
ROCKFORD       CLOUDY    66  49  54 SW16G24   29.89F
PEORIA         SUNNY     64  51  62 S14       29.95S
$$

NOTE: "FAIR" INDICATES FEW OR NO CLOUDS BELOW 12,000 FEET WITH NO
SIGNIFICANT WEATHER AND/OR OBSTRUCTIONS TO VISIBILITY. WIND
SPEEDS ARE IN MILES-PER-HOUR.




USA.gov is the U.S. government's official web portal to all federal, state and local government web resources and services.